Weather History for KDWX - April, 2014

Change the Weather History Date:

Thursday, April 24, 2014

  Actual Average (KCAG) Record (KCAG)
Temperature  
Mean Temperature 40 °F 45 °F  
Max Temperature 58 °F 61 °F - ()
Min Temperature 21 °F 29 °F - ()
Degree Days  
Heating Degree Days 26 20  
Month to date heating degree days 556  
Since 1 July heating degree days 7894  
Cooling Degree Days 0 0  
Month to date cooling degree days 0  
Year to date cooling degree days 0  
Moisture  
Dew Point 19 °F    
Average Humidity 48    
Maximum Humidity 85    
Minimum Humidity 20    
Precipitation  
Precipitation 0.00 in 0.06 in - ()
Month to date precipitation 1.26  
Year to date precipitation 4.25  
Sea Level Pressure  
Sea Level Pressure 30.07 in    
Wind  
Wind Speed 5 mph (SW)    
Max Wind Speed 20 mph    
Max Gust Speed 30 mph    
Visibility 10 miles    
Events      
T = Trace of Precipitation, MM = Missing Value Source: NWS Daily Summary

Daily Weather History Graph

Daily Weather History Graph

Search for Another Location

Airport or City:

Trip Planner

Search our weather history database for the weather conditions in past years. The results will help you decide how hot, cold, wet, or windy it might be!

Date:

Astronomy

Apr. 24, 2014 Rise Set
Actual Time 6:17 AM MDT 7:59 PM MDT
Civil Twilight 5:48 AM MDT 8:28 PM MDT
Nautical Twilight 5:12 AM MDT 9:04 PM MDT
Astronomical Twilight 4:34 AM MDT 9:42 PM MDT
Moon 3:32 AM MDT (4/24) 3:16 PM MDT (4/24)
Length of Visible Light 14h 40m
Length of Day
13h 42m
Waning Crescent, 24% of the Moon is Illuminated
Apr 24
Waning Crescent
Apr 29
New
May 6
First Quarter
May 14
Full
May 21
Last Quarter

Hourly Weather History & Observations

Time (MDT) Temp. Windchill Dew Point Humidity Pressure Visibility Wind Dir Wind Speed Gust Speed Precip Events Conditions
12:15 AM 27.7 °F - 16.0 °F 62% 30.09 in 10.0 mi Calm Calm - N/A   Clear
12:35 AM 25.9 °F - 16.3 °F 67% 30.10 in 10.0 mi Calm Calm - N/A   Clear
12:55 AM 22.3 °F 17.6 °F 18.1 °F 84% 30.10 in 10.0 mi ENE 3.5 mph - N/A   Clear
1:15 AM 22.8 °F 18.2 °F 16.9 °F 78% 30.10 in 10.0 mi ENE 3.5 mph - N/A   Clear
1:35 AM 21.9 °F - 17.4 °F 83% 30.10 in 10.0 mi Calm Calm - N/A   Clear
1:55 AM 27.5 °F - 16.2 °F 62% 30.10 in 10.0 mi Calm Calm - N/A   Clear
2:15 AM 30.0 °F 24.1 °F 15.8 °F 56% 30.10 in 10.0 mi SSE 5.8 mph - N/A   Clear
2:35 AM 25.5 °F 21.3 °F 17.6 °F 72% 30.10 in 10.0 mi SE 3.5 mph - N/A   Clear
2:55 AM 27.0 °F - 17.1 °F 66% 30.10 in 10.0 mi Calm Calm - N/A   Clear
3:15 AM 24.1 °F 19.7 °F 16.5 °F 73% 30.10 in 10.0 mi ENE 3.5 mph - N/A   Clear
3:35 AM 23.7 °F - 17.2 °F 76% 30.10 in 10.0 mi Calm Calm - N/A   Clear
3:55 AM 24.4 °F - 17.1 °F 73% 30.10 in 10.0 mi Calm Calm - N/A   Clear
4:15 AM 21.4 °F - 17.1 °F 83% 30.10 in 10.0 mi Calm Calm - N/A   Clear
4:35 AM 22.1 °F 14.7 °F 17.8 °F 83% 30.11 in 10.0 mi ENE 5.8 mph - N/A   Clear
4:55 AM 21.9 °F 17.2 °F 16.5 °F 80% 30.11 in 10.0 mi North 3.5 mph - N/A   Clear
5:15 AM 22.3 °F 13.9 °F 17.6 °F 82% 30.11 in 10.0 mi NE 6.9 mph - N/A   Clear
5:35 AM 23.4 °F 18.9 °F 17.2 °F 77% 30.11 in 10.0 mi NE 3.5 mph - N/A   Clear
5:55 AM 22.8 °F 18.2 °F 16.9 °F 78% 30.12 in 10.0 mi South 3.5 mph - N/A   Clear
6:15 AM 21.0 °F 16.2 °F 16.5 °F 83% 30.13 in 10.0 mi NE 3.5 mph - N/A   Clear
6:35 AM 21.0 °F - 16.3 °F 82% 30.13 in 10.0 mi Calm Calm - N/A   Clear
6:55 AM 22.1 °F - 18.1 °F 85% 30.14 in 10.0 mi Calm Calm - N/A   Clear
7:15 AM 24.6 °F - 19.8 °F 82% 30.14 in 10.0 mi Calm Calm - N/A   Clear
7:35 AM 26.4 °F - 19.8 °F 76% 30.15 in 10.0 mi Calm Calm - N/A   Clear
7:55 AM 28.8 °F - 20.3 °F 71% 30.15 in 10.0 mi Calm Calm - N/A   Clear
8:15 AM 31.3 °F - 20.8 °F 65% 30.15 in 10.0 mi Calm Calm - N/A   Clear
8:35 AM 32.7 °F - 20.7 °F 61% 30.15 in 10.0 mi Calm Calm - N/A   Clear
8:55 AM 36.3 °F - 22.1 °F 56% 30.15 in 10.0 mi Calm Calm - N/A   Clear
9:15 AM 41.5 °F 37.1 °F 17.8 °F 38% 30.15 in 10.0 mi SSW 6.9 mph - N/A   Clear
9:35 AM 42.6 °F 39.0 °F 16.9 °F 35% 30.14 in 10.0 mi SSW 5.8 mph - N/A   Clear
9:55 AM 43.0 °F 38.2 °F 17.2 °F 36% 30.14 in 10.0 mi SW 8.1 mph - N/A   Clear
10:15 AM 43.5 °F 37.5 °F 17.4 °F 35% 30.13 in 10.0 mi SW 11.5 mph - N/A   Clear
10:35 AM 43.7 °F 37.3 °F 18.0 °F 36% 30.13 in 10.0 mi SW 12.7 mph - N/A   Clear
10:55 AM 43.0 °F 36.4 °F 17.2 °F 36% 30.13 in 10.0 mi SW 12.7 mph 21.9 mph N/A   Clear
11:15 AM 43.0 °F 36.8 °F 17.8 °F 36% 30.13 in 10.0 mi SSW 11.5 mph 18.4 mph N/A   Clear
11:35 AM 43.7 °F 39.1 °F 17.1 °F 34% 30.13 in 10.0 mi SW 8.1 mph - N/A   Clear
11:55 AM 43.9 °F 37.2 °F 16.3 °F 33% 30.12 in 10.0 mi SSW 13.8 mph - N/A   Clear
12:15 PM 45.7 °F 40.2 °F 16.9 °F 32% 30.11 in 10.0 mi SSW 11.5 mph 17.3 mph N/A   Clear
12:35 PM 47.5 °F - 18.3 °F 31% 30.10 in 10.0 mi SSW 10.4 mph - N/A   Clear
12:55 PM 49.6 °F - 18.9 °F 30% 30.08 in 10.0 mi SSW 9.2 mph 19.6 mph N/A   Clear
1:15 PM 51.8 °F - 15.6 °F 24% 30.07 in 10.0 mi WSW 13.8 mph 21.9 mph N/A   Clear
1:35 PM 52.7 °F - 16.3 °F 24% 30.06 in 10.0 mi SSW 13.8 mph 20.7 mph N/A   Clear
1:55 PM 53.8 °F - 17.2 °F 24% 30.05 in 10.0 mi SW 15.0 mph 20.7 mph N/A   Clear
2:15 PM 54.7 °F - 18.0 °F 24% 30.05 in 10.0 mi SW 12.7 mph 25.3 mph N/A   Clear
2:35 PM 55.0 °F - 18.0 °F 23% 30.04 in 10.0 mi SSW 15.0 mph 24.2 mph N/A   Clear
2:55 PM 54.1 °F - 18.1 °F 24% 30.03 in 10.0 mi SSW 19.6 mph 23.0 mph N/A   Clear
3:15 PM 57.2 °F - 18.0 °F 22% 30.02 in 10.0 mi SW 15.0 mph 29.9 mph N/A   Clear
3:35 PM 57.7 °F - 17.8 °F 21% 30.01 in 10.0 mi WSW 15.0 mph 25.3 mph N/A   Clear
3:55 PM 57.7 °F - 19.2 °F 22% 30.00 in 10.0 mi SW 13.8 mph 24.2 mph N/A   Clear
4:15 PM 57.6 °F - 18.9 °F 22% 30.00 in 10.0 mi SW 17.3 mph 27.6 mph N/A   Clear
4:35 PM 58.3 °F - 17.2 °F 20% 29.99 in 10.0 mi WSW 19.6 mph 28.8 mph N/A   Clear
4:55 PM 57.9 °F - 18.1 °F 21% 29.99 in 10.0 mi WSW 17.3 mph 24.2 mph N/A   Clear
5:15 PM 54.7 °F - 17.2 °F 23% 29.99 in 10.0 mi WSW 13.8 mph 25.3 mph N/A   Scattered Clouds
5:35 PM 58.3 °F - 19.2 °F 22% 29.98 in 10.0 mi SW 15.0 mph 26.5 mph N/A   Scattered Clouds
5:55 PM 57.0 °F - 17.8 °F 22% 29.98 in 10.0 mi WSW 15.0 mph 25.3 mph N/A   Mostly Cloudy
6:15 PM 55.0 °F - 18.5 °F 24% 29.99 in 10.0 mi WSW 12.7 mph 19.6 mph N/A   Overcast
6:35 PM 54.5 °F - 19.2 °F 25% 29.99 in 10.0 mi WSW 15.0 mph 21.9 mph N/A   Overcast
6:55 PM 54.1 °F - 19.9 °F 26% 29.99 in 10.0 mi WSW 16.1 mph 21.9 mph N/A   Overcast
7:15 PM 54.3 °F - 19.0 °F 25% 29.99 in 10.0 mi WSW 17.3 mph 21.9 mph N/A   Overcast
7:35 PM 53.2 °F - 19.4 °F 27% 30.00 in 10.0 mi WSW 10.4 mph 17.3 mph N/A   Overcast
7:55 PM 52.2 °F - 21.2 °F 30% 30.01 in 10.0 mi WSW 9.2 mph - N/A   Overcast
8:15 PM 52.3 °F - 20.5 °F 29% 30.01 in 10.0 mi West 9.2 mph - N/A   Overcast
8:35 PM 48.7 °F - 24.4 °F 39% 30.01 in 10.0 mi WNW 4.6 mph - N/A   Overcast
8:55 PM 47.5 °F - 24.3 °F 40% 30.02 in 10.0 mi West 4.6 mph - N/A   Overcast
9:15 PM 48.4 °F - 24.4 °F 39% 30.03 in 10.0 mi West 3.5 mph - N/A   Overcast
9:35 PM 48.2 °F - 23.5 °F 38% 30.03 in 10.0 mi West 8.1 mph - N/A   Overcast
9:55 PM 46.4 °F 45.2 °F 25.3 °F 44% 30.04 in 10.0 mi West 3.5 mph - N/A   Overcast
10:15 PM 44.6 °F 42.2 °F 27.7 °F 52% 30.04 in 10.0 mi NW 4.6 mph - N/A   Overcast
10:35 PM 45.5 °F - 27.1 °F 49% 30.04 in 10.0 mi Calm Calm - N/A   Overcast
10:55 PM 46.9 °F - 26.2 °F 44% 30.03 in 10.0 mi Calm Calm - N/A   Overcast
11:15 PM 45.7 °F 44.4 °F 28.0 °F 50% 30.03 in 10.0 mi ESE 3.5 mph - N/A   Overcast
11:35 PM 44.2 °F 40.3 °F 28.8 °F 55% 30.04 in 10.0 mi SE 6.9 mph - N/A   Overcast
11:55 PM 44.2 °F 41.8 °F 28.8 °F 55% 30.04 in 10.0 mi East 4.6 mph - N/A   Overcast